Skip Page Navigation
NASA JPL Caltech
NASA Logo - Jet Propulsion Laboratory + View the NASA Portal
+ Center for Near-Earth Object Studies
JPL Home Earth Solar System Stars & Galaxies Technology
JPL Solar System Dynamics
BODIES ORBITS EPHEMERIDES TOOLS PHYSICAL DATA DISCOVERY FAQ SITE MAP
JPL Small-Body Database Browser
Search: [ help ]  
201476 (2003 GS34)
Classification: Main-belt Asteroid          SPK-ID: 2201476
Ephemeris | Orbit Diagram | Orbital Elements | Mission Design | Physical Parameters | Discovery Circumstances ]

[ show orbit diagram ]
Orbital Elements at Epoch 2459000.5 (2020-May-31.0) TDB
Reference: JPL 15 (heliocentric ecliptic J2000)
 Element Value Uncertainty (1-sigma)   Units 
e .06741019449881183 4.1489e-08  
a 2.288945060071596 1.3378e-08 au
q 2.134646828375075 9.62e-08 au
i 7.376755472525415 5.2605e-06 deg
node 85.26109410307531 3.7243e-05 deg
peri 67.01637291468435 5.528e-05 deg
M 23.78269962206262 3.9632e-05 deg
tp 2458916.937749108278
(2020-Mar-08.43774911)
0.00013923 TDB
period 1264.886274437622
3.46
1.1089e-05
3.036e-08
d
yr
n .2846105671911562 2.4951e-09 deg/d
Q 2.443243291768117 1.428e-08 au
  Orbit Determination Parameters
   # obs. used (total)      328  
   data-arc span      6782 days (18.57 yr)  
   first obs. used      2001-10-24  
   last obs. used      2020-05-19  
   planetary ephem.      DE431  
   SB-pert. ephem.      SB431-N16  
   condition code      0  
   norm. resid. RMS      .5758  
   source      ORB  
   producer      Otto Matic  
   solution date      2020-Nov-12 05:05:30  

Additional Information
 Earth MOID = 1.15839 au 
 Jupiter MOID = 2.56256 au 
 T_jup = 3.586 
[ show covariance matrix ]

Ephemeris | Orbit Diagram | Orbital Elements | Mission Design | Physical Parameters | Discovery Circumstances ]

Physical Parameter Table
Parameter Symbol Value Units Sigma Reference Notes
absolute magnitude H 16.9   n/a MPO454427  

201476 (2003 GS34)          Discovered 2003-Apr-07 by Spacewatch at Kitt Peak
Reference: 20081212/Numbers.arcLast Updated: 2008-12-12
Ephemeris | Orbit Diagram | Orbital Elements | Mission Design | Physical Parameters | Discovery Circumstances ]
ABOUT SSD CREDITS/AWARDS PRIVACY/COPYRIGHT GLOSSARY LINKS
FirstGov 2021-Jan-20 20:48 UT
(server date/time)  
NASA Home Page
Site Manager:   Ryan S. Park
Webmaster  Alan B. Chamberlin